Location: Saluda
(35.2377°N, 82.3468°W)
Time: 15:15:55
(UTC+00:00)

Explorer 11/Cluster Stage 4 - Pass Details

Date: 06 October 2022
Orbit: 466 x 1247 km, 28.8° (Epoch: 08 December)

Event Time Altitude Azimuth Distance (km) Brightness Sun altitude
Rises 12:58:50 0° 200° (SSW) 3,913 10.2 17.2°
Reaches altitude 10° 13:03:01 10° 179° (S) 3,077 10.0 18.0°
Maximum altitude 13:07:00 15° 147° (SSE) 2,803 10.5 18.7°
Drops below altitude 10° 13:11:07 10° 117° (ESE) 3,205 12.0 19.5°
Sets 13:15:36 0° 96° (E) 4,178 11.7 20.4°
